Weather History for Tinker AFB, OK

Change the Weather History Date:

Friday, October 5, 2012

  Actual Average Record
Temperature  
Mean Temperature 52 °F -  
Max Temperature 57 °F 72 °F 87 °F (2007)
Min Temperature 45 °F 54 °F 45 °F (2010)
Degree Days  
Heating Degree Days 14    
Growing Degree Days 2 (Base 50)    
Moisture  
Dew Point 45 °F    
Average Humidity 76    
Maximum Humidity 88    
Minimum Humidity 62    
Precipitation  
Precipitation 0.00 in - - ()
Sea Level Pressure  
Sea Level Pressure 30.16 in    
Wind  
Wind Speed 14 mph (North)    
Max Wind Speed 17 mph    
Max Gust Speed 23 mph    
Visibility 10 miles    
Events Rain    
Averages and records for this station are not official NWS values.
T = Trace of Precipitation, MM = Missing Value Source: NWS Daily Summary

Daily Weather History Graph

Daily Weather History Graph

Search for Another Location

Airport:

Trip Planner

Search our weather history database for the weather conditions in past years. The results will help you decide how hot, cold, wet, or windy it might be!

Date:

Astronomy

Oct. 05, 2012 Rise Set
Actual Time 7:28 AM CDT 7:06 PM CDT
Civil Twilight 7:02 AM CDT 7:32 PM CDT
Nautical Twilight 6:33 AM CDT 8:01 PM CDT
Astronomical Twilight 6:03 AM CDT 8:31 PM CDT
Moon 10:41 PM CDT (10/5) 12:26 PM CDT (10/5)
Length of Visible Light 12h 29m
Length of Day
11h 38m
Waning Gibbous, 74% of the Moon is Illuminated
Oct 5
Waning Gibbous
Oct 8
Last Quarter
Oct 15
New
Oct 21
First Quarter
Oct 29
Full

Hourly Weather History & Observations

Time (CDT) Temp. Windchill Dew Point Humidity Pressure Visibility Wind Dir Wind Speed Gust Speed Precip Events Conditions
12:55 AM 57.9 °F - 46.8 °F 66% 30.14 in 10.0 mi North 13.8 mph - N/A   Overcast
1:24 AM 57.2 °F - 46.4 °F 67% 30.14 in 10.0 mi North 15.0 mph - N/A   Light Drizzle
1:34 AM 57.2 °F - 46.4 °F 67% 30.14 in 10.0 mi North 16.1 mph - N/A   Overcast
1:55 AM 56.8 °F - 46.8 °F 69% 30.14 in 10.0 mi NNW 13.8 mph - 0.00 in   Overcast
2:05 AM 57.2 °F - 46.4 °F 67% 30.15 in 10.0 mi North 15.0 mph - N/A Rain Light Rain
2:33 AM 53.6 °F - 48.2 °F 82% 30.15 in 10.0 mi North 12.7 mph - N/A   Overcast
2:44 AM 53.6 °F - 48.2 °F 82% 30.15 in 10.0 mi North 11.5 mph - N/A   Overcast
2:55 AM 53.6 °F - 48.7 °F 84% 30.15 in 10.0 mi North 11.5 mph - 0.00 in   Overcast
3:44 AM 51.8 °F - 48.2 °F 88% 30.14 in 10.0 mi North 12.7 mph - N/A   Overcast
3:55 AM 52.2 °F - 47.7 °F 85% 30.14 in 10.0 mi NNW 12.7 mph - 0.00 in   Overcast
4:03 AM 51.8 °F - 48.2 °F 88% 30.14 in 10.0 mi North 12.7 mph - N/A   Light Drizzle
4:16 AM 51.8 °F - 48.2 °F 88% 30.14 in 10.0 mi North 15.0 mph 20.7 mph N/A   Overcast
4:55 AM 52.0 °F - 46.8 °F 82% 30.14 in 10.0 mi North 13.8 mph - 0.00 in   Overcast
5:55 AM 51.8 °F - 46.0 °F 81% 30.14 in 10.0 mi North 12.7 mph - N/A   Overcast
6:27 AM 51.8 °F - 44.6 °F 76% 30.14 in 10.0 mi NNE 13.8 mph - N/A   Light Drizzle
6:41 AM 51.8 °F - 44.6 °F 76% 30.14 in 10.0 mi NNE 12.7 mph - N/A   Overcast
6:55 AM 51.1 °F - 45.0 °F 80% 30.14 in 10.0 mi NNE 11.5 mph - 0.00 in   Overcast
7:55 AM 51.4 °F - 45.1 °F 79% 30.14 in 10.0 mi North 12.7 mph - N/A   Overcast
8:21 AM 51.8 °F - 44.6 °F 76% 30.16 in 10.0 mi North 13.8 mph 19.6 mph N/A   Overcast
8:29 AM 51.8 °F - 44.6 °F 76% 30.16 in 10.0 mi North 13.8 mph - N/A   Light Drizzle
8:38 AM 51.8 °F - 44.6 °F 76% 30.15 in 10.0 mi North 13.8 mph - N/A   Overcast
8:55 AM 51.1 °F - 45.1 °F 80% 30.16 in 10.0 mi North 16.1 mph 23.0 mph 0.00 in   Mostly Cloudy
8:59 AM 51.8 °F - 46.4 °F 82% 30.16 in 10.0 mi North 17.3 mph 23.0 mph N/A   Scattered Clouds
9:02 AM 50.0 °F - 46.4 °F 87% 30.16 in 10.0 mi North 16.1 mph 23.0 mph N/A   Mostly Cloudy
9:16 AM 51.8 °F - 46.4 °F 82% 30.16 in 10.0 mi North 15.0 mph - N/A   Mostly Cloudy
9:55 AM 50.0 °F - 46.4 °F 87% 30.17 in 10.0 mi North 13.8 mph - N/A   Overcast
10:55 AM 51.6 °F - 45.7 °F 80% 30.16 in 10.0 mi North 11.5 mph - N/A   Overcast
11:20 AM 53.6 °F - 46.4 °F 77% 30.16 in 10.0 mi North 12.7 mph - N/A   Overcast
11:55 AM 52.9 °F - 45.9 °F 77% 30.16 in 10.0 mi North 15.0 mph - N/A   Overcast
12:55 PM 53.1 °F - 45.9 °F 77% 30.17 in 10.0 mi North 12.7 mph - N/A   Overcast
1:55 PM 54.3 °F - 46.2 °F 74% 30.16 in 10.0 mi North 15.0 mph - N/A   Overcast
2:55 PM 54.1 °F - 45.9 °F 74% 30.16 in 10.0 mi North 13.8 mph - N/A   Overcast
3:17 PM 55.4 °F - 46.4 °F 72% 30.16 in 10.0 mi North 16.1 mph - N/A   Overcast
3:55 PM 55.4 °F - 45.5 °F 69% 30.15 in 10.0 mi NNE 11.5 mph - N/A   Overcast
4:55 PM 57.0 °F - 44.2 °F 62% 30.14 in 10.0 mi NE 13.8 mph - N/A   Overcast
4:56 PM 57.2 °F - 44.6 °F 63% 30.14 in 10.0 mi NNE 11.5 mph - N/A   Overcast
5:00 PM 57.2 °F - 44.6 °F 63% 30.14 in 10.0 mi NNE 16.1 mph 23.0 mph N/A   Overcast
5:55 PM 55.4 °F - 42.6 °F 62% 30.15 in 10.0 mi NE 15.0 mph - N/A   Overcast
6:55 PM 53.6 °F - 43.0 °F 67% 30.17 in 10.0 mi NE 10.4 mph - N/A   Clear
7:55 PM 50.7 °F - 42.1 °F 72% 30.19 in 10.0 mi NE 9.2 mph - N/A   Clear
8:55 PM 48.7 °F - 42.1 °F 78% 30.22 in 10.0 mi NE 8.1 mph - N/A   Clear
9:55 PM 48.2 °F - 39.9 °F 73% 30.23 in 10.0 mi NE 11.5 mph - N/A   Clear
10:55 PM 46.9 °F - 38.8 °F 73% 30.25 in 10.0 mi NNE 11.5 mph - N/A   Clear
11:55 PM 45.9 °F 40.4 °F 37.9 °F 74% 30.25 in 10.0 mi NNE 11.5 mph - N/A   Clear